Regional Weather Roundup
Issued by NWS

Home | Current Version | Previous Version | Text Only | Print | Product List | Glossary On
Versions: 1 2 3 4 5 6 7 8 9 10 11 12 13 14 15 16 17 18 19 20 21 22 23 24 25 26 27
000
ASUS42 KTBW 250316
RWRFL
FLORIDA REGIONAL WEATHER ROUNDUP
NATIONAL WEATHER SERVICE TAMPA BAY RUSKIN FL
1100 PM EDT TUE MAY 24 2016

NOTE: "FAIR" INDICATES FEW OR NO CLOUDS BELOW 12,000 FEET WITH NO
SIGNIFICANT WEATHER AND/OR OBSTRUCTIONS TO VISIBILITY.

FLZ001>010-012>015-112-114-115-250400-
PANHANDLE FLORIDA

CITY           SKY/WX    TMP DP  RH WIND       PRES   REMARKS
PENSACOLA      CLEAR     73  63  70 SW3       30.14R
PENSACOLA NAS  CLEAR     68  63  84 CALM      30.14R
MILTON NAS     PTCLDY    69  62  78 SW3       30.15
CRESTVIEW      CLEAR     67  58  72 CALM      30.17R
DUKE FIELD     PTCLDY    68  59  73 S5        30.15R
VALPARAISO     CLEAR     74  64  69 CALM      30.14R
MARY ESTHER    CLEAR     75  63  64 SW2       30.13R
TRI COUNTY     FAIR      68  61  78 CALM      30.17R
PANAMA CITY    FAIR      67  63  87 NW5       30.14R
TYNDALL AFB    CLEAR     69  66  91 CALM      30.14R
APALACHICOLA   CLEAR     69  65  86 CALM      30.14R

STATION/POSITION SKY/WX   TEMP    WIND        PRES    WAVE   SWELL
                          AIR SEA DIR/SP/G            HT/PER HT/PER
                          (F)     (DEG/KT/KT) (MB)    (FT/S) (FT/S)
30.1N   87.6W              77 79  180/  8/  8 1020.0R   1/ 3
29.2N   88.2W              78 77  140/  8/ 10 1020.4R
28.8N   86.0W              77 80   CALM  /  2 1020.4R   1
PANAMA CITY BEAC           78 78              1020.7R
TOWER C                    76     340/  8/  8 1021.1R
28.5N   84.5W              77 79   10/  2/  4 1020.4R   0

$$
FLZ011-016>038-118-127-128-134-139-239-250400-
NORTH FLORIDA

CITY           SKY/WX    TMP DP  RH WIND       PRES   REMARKS
MARIANNA       CLEAR     74  59  59 CALM      30.15R
TALLAHASSEE    PTCLDY    75  62  64 CALM      30.14R
PERRY          MOCLDY    70  65  82 CALM      30.15R
LIVE OAK       FAIR      79  61  53 SE5       30.19R
CROSS CITY       N/A     75  65  70 S3        30.15R
LAKE CITY      FAIR      70  61  73 SE3       30.18R
GAINESVILLE    CLEAR     70  58  65 E5        30.18R
WILLISTON      FAIR      75  59  57 CALM      30.18R
PALATKA        FAIR      72  63  73 SE5       30.18R
MAYPORT NAS    PTCLDY    76  62  62 SE8       30.18R
JACKSONVILLE   MOCLDY    72  64  76 SE5       30.18R
JAX NAS        PTCLDY    79  62  56 SE8       30.19R
JAX CECIL      CLEAR     75  59  57 CALM      30.19R
FERNANDINA BEA FAIR      79  63  57 S6        30.17R
ST AUGUSTINE   PTCLDY    76  62  62 SE10      30.19R
PALM COAST     FAIR      72  62  70 SE3       30.18R

STATION/POSITION SKY/WX   TEMP    WIND        PRES    WAVE   SWELL
                          AIR SEA DIR/SP/G            HT/PER HT/PER
                          (F)     (DEG/KT/KT) (MB)    (FT/S) (FT/S)
SHELL POINT                77     290/  4/  5 1018.6
KEATON BEACH               72      60/  4/  5 1020.7R
CEDAR KEY                  81     150/ 14/ 16 1021.6R
FERNANDINA                 77 79              1021.5R
30.7N   81.3W                 78                N/A     2/ 9
MAYPORT                    77 79              1021.7R
31.4N   80.9W              77 76  150/ 12/ 12 1021.8R   2/ 9   2/ 9
ST AUGUSTINE               78 81  130/ 14/ 15 1022.9R

$$
FLZ040-043>046-052-053-057-058-063-144-250400-
INTERIOR CENTRAL FLORIDA

CITY           SKY/WX    TMP DP  RH WIND       PRES   REMARKS
OCALA          MOCLDY    75  55  50 CALM      30.18R
THE VILLAGES     N/A     75  61  60 CALM      30.08R
LEESBURG       CLEAR     77  59  53 SE10      30.18R
SANFORD        CLEAR     72  59  63 E7        30.17R
ORLANDO EXEC   CLEAR     73  59  61 E6        30.17R
ORLANDO INTL   PTCLDY    73  60  63 E6        30.18R
WINTER HAVEN   CLEAR     75  59  57 NE3       30.17R
LAKELAND       CLEAR     73  61  64 E6        30.17R
BARTOW         FAIR      73  59  60 E7        30.17R
OKEECHOBEE     CLEAR     70  64  83 CALM      30.16R

$$
FLZ041-047-054-059-064-141-147-250400-
EAST CENTRAL FLORIDA

CITY           SKY/WX    TMP DP  RH WIND       PRES   REMARKS
DAYTONA BEACH  CLEAR     76  60  57 E3        30.18R
DELAND           N/A     72  59  64 CALM      30.20R
JFK SPACE CTR  PTCLDY    76  58  53 SE8       30.17R
CAPE CANAVERAL PTCLDY    77  58  53 E7        30.16R
PATRICK AFB    PTCLDY    79  63  59 E14       30.16R
MELBOURNE      CLEAR     79  62  56 E14       30.16R
VERO BEACH     MOCLDY    79  63  57 E13G20    30.16R
FT PIERCE      PTCLDY    77  65  66 E13       30.16R
STUART         CLEAR     81  63  54 E12       30.16S

STATION/POSITION SKY/WX   TEMP    WIND        PRES    WAVE   SWELL
                          AIR SEA DIR/SP/G            HT/PER HT/PER
                          (F)     (DEG/KT/KT) (MB)    (FT/S) (FT/S)
28.5N   80.2W              79 80  110/ 16/ 17 1021.4R
28.9N   78.5W              77 78   80/ 10/ 14 1022.2R
TRIDENT PIER               78 81              1021.2R
28.4N   80.5W                 80                N/A     3/ 5
27.5N   80.2W                 80                N/A     4/ 5

$$
FLZ050-056-061-142-242-148-248-149-249-151-251-155-255-
160-260-250400-
WEST CENTRAL FLORIDA

CITY           SKY/WX    TMP DP  RH WIND       PRES   REMARKS
CRYSTAL RIVER  FAIR      72  61  68 CALM      30.16R
INVERNESS      FAIR      73  61  64 CALM      30.17R
BROOKSVILLE    PTCLDY    71  61  70 E6        30.17R
ZEPHYRHILLS    CLOUDY    71  60  69 NE5       30.17R
CLEARWATER AIR FAIR      77  66  69 SE12G17   30.14R
ST PETE CLEARW MOCLDY    79  67  66 E12       30.14R
TAMPA INTL     PTCLDY    79  63  57 SE8       30.15R
TAMPA EXEC     MOCLDY    77  63  61 CALM      30.16R
PLANT CITY     CLEAR     77  63  61 E5        30.18R
MACDILL AFB    PTCLDY    77  67  71 E15       30.14R
PETER O KNIGHT MOCLDY    81  64  57 E7        30.15R
ST PETERSBURG  MOCLDY    80  69  69 SE15      30.13R
SARASOTA       CLEAR     77  65  66 NE6       30.12R
VENICE         NOT AVBL

STATION/POSITION SKY/WX   TEMP    WIND        PRES    WAVE   SWELL
                          AIR SEA DIR/SP/G            HT/PER HT/PER
                          (F)     (DEG/KT/KT) (MB)    (FT/S) (FT/S)
27.3N   84.2W                 81                N/A     0
CLEARWATER BEACH           80 84              1019.9R
MIDDLE TAMPA BAY           79                 1020.2R
VENICE                     77 82   80/  4/  5 1020.0R

$$
FLZ066-069-070-075>078-162-262-165-265-250400-
SOUTHWEST FLORIDA AND KEYS

CITY           SKY/WX    TMP DP  RH WIND       PRES   REMARKS
PUNTA GORDA    MOCLDY    79  70  74 E9        30.14R
FT MYERS       CLEAR     78  68  71 SE9       30.12R
SOUTHWEST INTL CLEAR     77  68  73 E7        30.13R
NAPLES         CLEAR     78  68  71 E8        30.11S
MARATHON       CLOUDY    83  71  67 E5        30.10S
KEY WEST NAS   CLOUDY    80  75  84 NE3       30.10S
KEY WEST INTL  CLOUDY    81  71  71 NE6       30.10S

STATION/POSITION SKY/WX   TEMP    WIND        PRES    WAVE   SWELL
                          AIR SEA DIR/SP/G            HT/PER HT/PER
                          (F)     (DEG/KT/KT) (MB)    (FT/S) (FT/S)
NAPLES                        87              1019.5R
26.0N   85.6W              80 82   80/ 12/ 16 1019.8R   2/ 4
DRY TORTUGAS               82      90/ 11/ 12 1019.3R
SAND KEY                   81      90/  7/  7 1019.7R
LONG KEY                   83 87  100/ 13/ 15 1019.5F

$$
FLZ067-068-071>074-168-172>174-250400-
SOUTHEAST FLORIDA

CITY           SKY/WX    TMP DP  RH WIND       PRES   REMARKS
W PALM BEACH   MOCLDY    80  67  64 SE16      30.16R
BOCA RATON     PTCLDY    81  68  65 SE14      30.14R
FT LAUDER-EXEC PTCLDY    80  69  69 E12       30.13R
FT LAUDERDALE  MOCLDY    80  71  74 E16       30.13R
POMPANO BEACH  PTCLDY    80  69  69 E14       30.14R
PEMBROKE PINES CLEAR     80  69  69 E14       30.14S
OPA LOCKA      CLEAR     76  72  87 E6        30.14R
MIAMI          PTCLDY    78  71  79 E6        30.13R
WEST KENDALL   CLEAR     76  72  87 SE3       30.13R
HOMESTEAD      LGT RAIN  75  73  94 S3        30.13R

STATION/POSITION SKY/WX   TEMP    WIND        PRES    WAVE   SWELL
                          AIR SEA DIR/SP/G            HT/PER HT/PER
                          (F)     (DEG/KT/KT) (MB)    (FT/S) (FT/S)
PORT EVERGLADES            81      90/  7/ 14 1020.3R
VIRGINIA KEY               82 83              1020.1F
LAKE WORTH                 80 82              1020.3R
FOWEY ROCKS                82 84  100/ 17/ 17 1020.7R
SETTLEMENT POINT           79     100/ 12/ 14 1021.9R

$$





USA.gov is the U.S. government's official web portal to all federal, state and local government web resources and services.